Time,TemperatureF,DewpointF,PressureIn,WindDirection,WindDirectionDegrees,WindSpeedMPH,WindSpeedGustMPH,Humidity,HourlyPrecipIn,Conditions,Clouds,dailyrainin,SoftwareType,DateUTC
2013-01-12 00:02:00,54.3,27.9,29.13,North,-999,-999.0,-999.0,36,0.00,,,0.00,meteohub,2013-01-12 06:02:00,
2013-01-12 00:07:00,54.3,27.9,29.13,North,-999,-999.0,-999.0,36,0.00,,,0.00,meteohub,2013-01-12 06:07:00,
2013-01-12 00:12:00,54.0,27.7,29.16,North,-999,-999.0,-999.0,36,0.00,,,0.00,meteohub,2013-01-12 06:12:00,
2013-01-12 00:17:00,53.8,27.5,29.16,North,-999,-999.0,-999.0,36,0.00,,,0.00,meteohub,2013-01-12 06:17:00,
2013-01-12 00:22:00,53.6,27.3,29.16,North,-999,-999.0,-999.0,36,0.00,,,0.00,meteohub,2013-01-12 06:22:00,
2013-01-12 00:27:00,53.2,27.0,29.16,North,-999,-999.0,-999.0,36,0.00,,,0.00,meteohub,2013-01-12 06:27:00,
2013-01-12 00:32:00,53.4,27.1,29.16,North,-999,-999.0,-999.0,36,0.00,,,0.00,meteohub,2013-01-12 06:32:00,
2013-01-12 00:38:00,53.2,27.0,29.16,North,-999,-999.0,-999.0,36,0.00,,,0.00,meteohub,2013-01-12 06:38:00,
2013-01-12 00:43:00,53.1,26.8,29.16,North,-999,-999.0,-999.0,36,0.00,,,0.00,meteohub,2013-01-12 06:43:00,
2013-01-12 00:49:00,53.1,26.8,29.16,North,-999,-999.0,-999.0,36,0.00,,,0.00,meteohub,2013-01-12 06:49:00,
2013-01-12 00:54:00,52.9,26.6,29.16,North,-999,-999.0,-999.0,36,0.00,,,0.00,meteohub,2013-01-12 06:54:00,
2013-01-12 00:59:00,52.5,26.2,29.16,North,-999,-999.0,-999.0,36,0.00,,,0.00,meteohub,2013-01-12 06:59:00,
2013-01-12 01:04:00,52.7,26.4,29.16,North,-999,-999.0,-999.0,36,0.00,,,0.00,meteohub,2013-01-12 07:04:00,
2013-01-12 01:10:00,54.0,27.7,29.16,North,-999,-999.0,-999.0,36,0.00,,,0.00,meteohub,2013-01-12 07:10:00,
2013-01-12 01:15:00,54.7,28.2,29.16,North,-999,-999.0,-999.0,36,0.00,,,0.00,meteohub,2013-01-12 07:15:00,
2013-01-12 01:20:00,55.0,28.6,29.16,North,-999,-999.0,-999.0,36,0.00,,,0.00,meteohub,2013-01-12 07:20:00,
2013-01-12 01:25:00,55.2,28.8,29.19,North,-999,-999.0,-999.0,36,0.00,,,0.00,meteohub,2013-01-12 07:25:00,
2013-01-12 01:31:00,55.0,28.6,29.19,North,-999,-999.0,-999.0,36,0.00,,,0.00,meteohub,2013-01-12 07:31:00,
2013-01-12 01:36:00,54.9,28.4,29.19,North,-999,-999.0,-999.0,36,0.00,,,0.00,meteohub,2013-01-12 07:36:00,
2013-01-12 01:41:00,54.9,28.4,29.19,North,-999,-999.0,-999.0,36,0.00,,,0.00,meteohub,2013-01-12 07:41:00,
2013-01-12 01:46:00,55.0,28.6,29.19,North,-999,-999.0,-999.0,36,0.00,,,0.00,meteohub,2013-01-12 07:46:00,
2013-01-12 01:52:00,54.7,28.2,29.19,North,-999,-999.0,-999.0,36,0.00,,,0.00,meteohub,2013-01-12 07:52:00,
2013-01-12 01:57:00,54.3,27.9,29.22,North,-999,-999.0,-999.0,36,0.00,,,0.00,meteohub,2013-01-12 07:57:00,
2013-01-12 02:02:00,53.8,27.5,29.22,North,-999,-999.0,-999.0,36,0.00,,,0.00,meteohub,2013-01-12 08:02:00,
2013-01-12 02:07:00,54.0,27.7,29.22,North,-999,-999.0,-999.0,36,0.00,,,0.00,meteohub,2013-01-12 08:07:00,
2013-01-12 02:12:00,53.2,27.0,29.22,North,-999,-999.0,-999.0,36,0.00,,,0.00,meteohub,2013-01-12 08:12:00,
2013-01-12 02:17:00,53.2,27.0,29.22,North,-999,-999.0,-999.0,36,0.00,,,0.00,meteohub,2013-01-12 08:17:00,
2013-01-12 02:22:00,53.1,26.8,29.22,North,-999,-999.0,-999.0,36,0.00,,,0.00,meteohub,2013-01-12 08:22:00,
2013-01-12 02:27:00,52.9,26.6,29.25,North,-999,-999.0,-999.0,36,0.00,,,0.00,meteohub,2013-01-12 08:27:00,
2013-01-12 02:32:00,52.5,26.2,29.25,North,-999,-999.0,-999.0,36,0.00,,,0.00,meteohub,2013-01-12 08:32:00,
2013-01-12 02:37:00,52.0,25.9,29.25,North,-999,-999.0,-999.0,36,0.00,,,0.00,meteohub,2013-01-12 08:37:00,
2013-01-12 02:42:00,51.8,25.7,29.25,North,-999,-999.0,-999.0,36,0.00,,,0.00,meteohub,2013-01-12 08:42:00,
2013-01-12 02:47:00,51.6,26.2,29.25,North,-999,-999.0,-999.0,37,0.00,,,0.00,meteohub,2013-01-12 08:47:00,
2013-01-12 02:52:00,51.3,25.9,29.25,North,-999,-999.0,-999.0,37,0.00,,,0.00,meteohub,2013-01-12 08:52:00,
2013-01-12 02:57:00,50.9,25.5,29.25,North,-999,-999.0,-999.0,37,0.00,,,0.00,meteohub,2013-01-12 08:57:00,
2013-01-12 03:03:00,50.5,25.2,29.25,North,-999,-999.0,-999.0,37,0.00,,,0.00,meteohub,2013-01-12 09:03:00,
2013-01-12 03:08:00,50.7,25.3,29.25,North,-999,-999.0,-999.0,37,0.00,,,0.00,meteohub,2013-01-12 09:08:00,
2013-01-12 03:13:00,50.4,25.0,29.25,North,-999,-999.0,-999.0,37,0.00,,,0.00,meteohub,2013-01-12 09:13:00,
2013-01-12 03:18:00,50.0,24.8,29.25,North,-999,-999.0,-999.0,37,0.00,,,0.00,meteohub,2013-01-12 09:18:00,
2013-01-12 03:23:00,49.5,24.3,29.25,North,-999,-999.0,-999.0,37,0.00,,,0.00,meteohub,2013-01-12 09:23:00,
2013-01-12 03:29:00,49.3,24.1,29.28,North,-999,-999.0,-999.0,37,0.00,,,0.00,meteohub,2013-01-12 09:29:00,
2013-01-12 03:34:00,49.5,24.3,29.28,North,-999,-999.0,-999.0,37,0.00,,,0.00,meteohub,2013-01-12 09:34:00,
2013-01-12 03:39:00,49.3,24.1,29.28,North,-999,-999.0,-999.0,37,0.00,,,0.00,meteohub,2013-01-12 09:39:00,
2013-01-12 03:45:00,49.1,23.9,29.28,North,-999,-999.0,-999.0,37,0.00,,,0.00,meteohub,2013-01-12 09:45:00,
2013-01-12 03:50:00,47.8,22.8,29.28,North,-999,-999.0,-999.0,37,0.00,,,0.00,meteohub,2013-01-12 09:50:00,
2013-01-12 03:55:00,46.2,21.9,29.31,North,-999,-999.0,-999.0,38,0.00,,,0.00,meteohub,2013-01-12 09:55:00,
2013-01-12 04:00:00,45.1,21.0,29.31,North,-999,-999.0,-999.0,38,0.00,,,0.00,meteohub,2013-01-12 10:00:00,
2013-01-12 04:06:00,44.2,20.3,29.31,North,-999,-999.0,-999.0,38,0.00,,,0.00,meteohub,2013-01-12 10:06:00,
2013-01-12 04:11:00,43.9,19.9,29.31,North,-999,-999.0,-999.0,38,0.00,,,0.00,meteohub,2013-01-12 10:11:00,
2013-01-12 04:16:00,43.5,19.6,29.31,North,-999,-999.0,-999.0,38,0.00,,,0.00,meteohub,2013-01-12 10:16:00,
2013-01-12 04:22:00,42.3,19.0,29.31,North,-999,-999.0,-999.0,39,0.00,,,0.00,meteohub,2013-01-12 10:22:00,
2013-01-12 04:27:00,41.5,18.5,29.31,North,-999,-999.0,-999.0,39,0.00,,,0.00,meteohub,2013-01-12 10:27:00,
2013-01-12 04:32:00,40.8,17.8,29.31,North,-999,-999.0,-999.0,39,0.00,,,0.00,meteohub,2013-01-12 10:32:00,
2013-01-12 04:37:00,40.3,17.2,29.31,North,-999,-999.0,-999.0,39,0.00,,,0.00,meteohub,2013-01-12 10:37:00,
2013-01-12 04:42:00,40.1,17.1,29.34,North,-999,-999.0,-999.0,39,0.00,,,0.00,meteohub,2013-01-12 10:42:00,
2013-01-12 04:47:00,39.4,16.5,29.34,North,-999,-999.0,-999.0,39,0.00,,,0.00,meteohub,2013-01-12 10:47:00,
2013-01-12 04:52:00,38.8,16.0,29.34,North,-999,-999.0,-999.0,39,0.00,,,0.00,meteohub,2013-01-12 10:52:00,
2013-01-12 04:57:00,38.5,15.6,29.34,North,-999,-999.0,-999.0,39,0.00,,,0.00,meteohub,2013-01-12 10:57:00,
2013-01-12 05:02:00,38.5,15.6,29.34,North,-999,-999.0,-999.0,39,0.00,,,0.00,meteohub,2013-01-12 11:02:00,
2013-01-12 05:08:00,38.1,15.3,29.34,North,-999,-999.0,-999.0,39,0.00,,,0.00,meteohub,2013-01-12 11:08:00,
2013-01-12 05:13:00,37.8,15.1,29.34,North,-999,-999.0,-999.0,39,0.00,,,0.00,meteohub,2013-01-12 11:13:00,
2013-01-12 05:18:00,37.6,14.9,29.34,North,-999,-999.0,-999.0,39,0.00,,,0.00,meteohub,2013-01-12 11:18:00,
2013-01-12 05:24:00,37.4,14.7,29.34,North,-999,-999.0,-999.0,39,0.00,,,0.00,meteohub,2013-01-12 11:24:00,
2013-01-12 05:29:00,37.0,14.9,29.34,North,-999,-999.0,-999.0,40,0.00,,,0.00,meteohub,2013-01-12 11:29:00,
2013-01-12 05:34:00,36.9,14.7,29.34,North,-999,-999.0,-999.0,40,0.00,,,0.00,meteohub,2013-01-12 11:34:00,
2013-01-12 05:40:00,36.7,14.5,29.34,North,-999,-999.0,-999.0,40,0.00,,,0.00,meteohub,2013-01-12 11:40:00,
2013-01-12 05:45:00,36.3,14.4,29.34,North,-999,-999.0,-999.0,40,0.00,,,0.00,meteohub,2013-01-12 11:45:00,
2013-01-12 05:50:00,36.1,14.2,29.34,North,-999,-999.0,-999.0,40,0.00,,,0.00,meteohub,2013-01-12 11:50:00,
2013-01-12 05:55:00,35.6,13.6,29.36,North,-999,-999.0,-999.0,40,0.00,,,0.00,meteohub,2013-01-12 11:55:00,
2013-01-12 06:01:00,35.6,13.6,29.36,North,-999,-999.0,-999.0,40,0.00,,,0.00,meteohub,2013-01-12 12:01:00,
2013-01-12 06:06:00,35.4,13.5,29.36,North,-999,-999.0,-999.0,40,0.00,,,0.00,meteohub,2013-01-12 12:06:00,
2013-01-12 06:11:00,35.1,13.1,29.36,North,-999,-999.0,-999.0,40,0.00,,,0.00,meteohub,2013-01-12 12:11:00,
2013-01-12 06:17:00,34.3,12.6,29.36,North,-999,-999.0,-999.0,40,0.00,,,0.00,meteohub,2013-01-12 12:17:00,
2013-01-12 06:22:00,34.2,12.4,29.36,North,-999,-999.0,-999.0,40,0.00,,,0.00,meteohub,2013-01-12 12:22:00,
2013-01-12 06:27:00,34.0,12.2,29.39,North,-999,-999.0,-999.0,40,0.00,,,0.00,meteohub,2013-01-12 12:27:00,
2013-01-12 06:32:00,33.8,12.0,29.39,North,-999,-999.0,-999.0,40,0.00,,,0.00,meteohub,2013-01-12 12:32:00,
2013-01-12 06:37:00,33.6,12.4,29.39,North,-999,-999.0,-999.0,41,0.00,,,0.00,meteohub,2013-01-12 12:37:00,
2013-01-12 06:43:00,33.3,12.0,29.39,North,-999,-999.0,-999.0,41,0.00,,,0.00,meteohub,2013-01-12 12:43:00,
2013-01-12 06:48:00,33.3,12.0,29.39,North,-999,-999.0,-999.0,41,0.00,,,0.00,meteohub,2013-01-12 12:48:00,
2013-01-12 06:54:00,33.1,12.0,29.39,North,-999,-999.0,-999.0,41,0.00,,,0.00,meteohub,2013-01-12 12:54:00,
2013-01-12 06:59:00,33.1,12.0,29.39,North,-999,-999.0,-999.0,41,0.00,,,0.00,meteohub,2013-01-12 12:59:00,
2013-01-12 07:04:00,33.1,12.0,29.39,North,-999,-999.0,-999.0,41,0.00,,,0.00,meteohub,2013-01-12 13:04:00,
2013-01-12 07:10:00,33.1,12.0,29.39,North,-999,-999.0,-999.0,41,0.00,,,0.00,meteohub,2013-01-12 13:10:00,
2013-01-12 07:15:00,33.1,12.0,29.39,North,-999,-999.0,-999.0,41,0.00,,,0.00,meteohub,2013-01-12 13:15:00,
2013-01-12 07:20:00,33.1,12.0,29.39,North,-999,-999.0,-999.0,41,0.00,,,0.00,meteohub,2013-01-12 13:20:00,
2013-01-12 07:26:00,33.1,12.0,29.39,North,-999,-999.0,-999.0,41,0.00,,,0.00,meteohub,2013-01-12 13:26:00,
2013-01-12 07:31:00,33.1,12.0,29.39,North,-999,-999.0,-999.0,41,0.00,,,0.00,meteohub,2013-01-12 13:31:00,
2013-01-12 07:36:00,32.9,11.8,29.39,North,-999,-999.0,-999.0,41,0.00,,,0.00,meteohub,2013-01-12 13:36:00,
2013-01-12 07:42:00,32.7,11.7,29.39,North,-999,-999.0,-999.0,41,0.00,,,0.00,meteohub,2013-01-12 13:42:00,
2013-01-12 07:47:00,32.5,11.5,29.39,North,-999,-999.0,-999.0,41,0.00,,,0.00,meteohub,2013-01-12 13:47:00,
2013-01-12 07:52:00,32.5,11.5,29.39,North,-999,-999.0,-999.0,41,0.00,,,0.00,meteohub,2013-01-12 13:52:00,
2013-01-12 07:57:00,32.4,11.3,29.39,North,-999,-999.0,-999.0,41,0.00,,,0.00,meteohub,2013-01-12 13:57:00,
2013-01-12 08:02:00,32.4,11.3,29.39,North,-999,-999.0,-999.0,41,0.00,,,0.00,meteohub,2013-01-12 14:02:00,
2013-01-12 08:07:00,32.2,11.1,29.39,North,-999,-999.0,-999.0,41,0.00,,,0.00,meteohub,2013-01-12 14:07:00,
2013-01-12 08:12:00,32.2,11.1,29.39,North,-999,-999.0,-999.0,41,0.00,,,0.00,meteohub,2013-01-12 14:12:00,
2013-01-12 08:17:00,32.2,11.1,29.39,North,-999,-999.0,-999.0,41,0.00,,,0.00,meteohub,2013-01-12 14:17:00,
2013-01-12 08:22:00,32.0,10.9,29.39,North,-999,-999.0,-999.0,41,0.00,,,0.00,meteohub,2013-01-12 14:22:00,
2013-01-12 08:27:00,32.2,11.1,29.42,North,-999,-999.0,-999.0,41,0.00,,,0.00,meteohub,2013-01-12 14:27:00,
2013-01-12 08:32:00,32.2,11.1,29.42,North,-999,-999.0,-999.0,41,0.00,,,0.00,meteohub,2013-01-12 14:32:00,
2013-01-12 08:38:00,32.2,11.1,29.42,North,-999,-999.0,-999.0,41,0.00,,,0.00,meteohub,2013-01-12 14:38:00,
2013-01-12 08:43:00,32.4,11.3,29.45,North,-999,-999.0,-999.0,41,0.00,,,0.00,meteohub,2013-01-12 14:43:00,
2013-01-12 08:48:00,32.5,11.5,29.45,North,-999,-999.0,-999.0,41,0.00,,,0.00,meteohub,2013-01-12 14:48:00,
2013-01-12 08:54:00,32.4,11.3,29.45,North,-999,-999.0,-999.0,41,0.00,,,0.00,meteohub,2013-01-12 14:54:00,
2013-01-12 08:59:00,32.4,11.3,29.45,North,-999,-999.0,-999.0,41,0.00,,,0.00,meteohub,2013-01-12 14:59:00,
2013-01-12 09:04:00,32.5,11.5,29.45,North,-999,-999.0,-999.0,41,0.00,,,0.00,meteohub,2013-01-12 15:04:00,
2013-01-12 09:09:00,32.7,11.7,29.45,North,-999,-999.0,-999.0,41,0.00,,,0.00,meteohub,2013-01-12 15:09:00,
2013-01-12 09:15:00,32.7,11.7,29.45,North,-999,-999.0,-999.0,41,0.00,,,0.00,meteohub,2013-01-12 15:15:00,
2013-01-12 09:20:00,32.9,11.8,29.45,North,-999,-999.0,-999.0,41,0.00,,,0.00,meteohub,2013-01-12 15:20:00,
2013-01-12 09:25:00,33.1,12.0,29.48,North,-999,-999.0,-999.0,41,0.00,,,0.00,meteohub,2013-01-12 15:25:00,
2013-01-12 09:31:00,33.1,12.0,29.48,North,-999,-999.0,-999.0,41,0.00,,,0.00,meteohub,2013-01-12 15:31:00,
2013-01-12 09:36:00,33.3,12.0,29.48,North,-999,-999.0,-999.0,41,0.00,,,0.00,meteohub,2013-01-12 15:36:00,
2013-01-12 09:41:00,33.3,12.0,29.48,North,-999,-999.0,-999.0,41,0.00,,,0.00,meteohub,2013-01-12 15:41:00,
2013-01-12 09:47:00,33.3,12.0,29.48,North,-999,-999.0,-999.0,41,0.00,,,0.00,meteohub,2013-01-12 15:47:00,
2013-01-12 09:52:00,32.9,11.8,29.48,North,-999,-999.0,-999.0,41,0.00,,,0.00,meteohub,2013-01-12 15:52:00,
2013-01-12 09:57:00,32.7,11.7,29.45,North,-999,-999.0,-999.0,41,0.00,,,0.00,meteohub,2013-01-12 15:57:00,
2013-01-12 10:02:00,32.7,11.7,29.45,North,-999,-999.0,-999.0,41,0.00,,,0.00,meteohub,2013-01-12 16:02:00,
2013-01-12 10:07:00,33.1,12.0,29.45,North,-999,-999.0,-999.0,41,0.00,,,0.00,meteohub,2013-01-12 16:07:00,
2013-01-12 10:12:00,33.1,12.0,29.48,North,-999,-999.0,-999.0,41,0.00,,,0.00,meteohub,2013-01-12 16:12:00,
2013-01-12 10:17:00,32.7,11.7,29.48,North,-999,-999.0,-999.0,41,0.00,,,0.00,meteohub,2013-01-12 16:17:00,
2013-01-12 10:22:00,32.7,11.7,29.48,North,-999,-999.0,-999.0,41,0.00,,,0.00,meteohub,2013-01-12 16:22:00,
2013-01-12 10:27:00,32.5,11.5,29.48,North,-999,-999.0,-999.0,41,0.00,,,0.00,meteohub,2013-01-12 16:27:00,
2013-01-12 10:32:00,32.5,11.5,29.48,North,-999,-999.0,-999.0,41,0.00,,,0.00,meteohub,2013-01-12 16:32:00,
2013-01-12 10:38:00,32.7,11.7,29.48,North,-999,-999.0,-999.0,41,0.00,,,0.00,meteohub,2013-01-12 16:38:00,
2013-01-12 10:43:00,32.7,11.7,29.48,North,-999,-999.0,-999.0,41,0.00,,,0.00,meteohub,2013-01-12 16:43:00,
2013-01-12 10:48:00,32.5,11.5,29.48,North,-999,-999.0,-999.0,41,0.00,,,0.00,meteohub,2013-01-12 16:48:00,
2013-01-12 10:54:00,32.4,11.3,29.45,North,-999,-999.0,-999.0,41,0.00,,,0.00,meteohub,2013-01-12 16:54:00,
2013-01-12 10:59:00,32.5,11.5,29.45,North,-999,-999.0,-999.0,41,0.00,,,0.00,meteohub,2013-01-12 16:59:00,
2013-01-12 11:04:00,32.2,11.1,29.45,North,-999,-999.0,-999.0,41,0.00,,,0.00,meteohub,2013-01-12 17:04:00,
2013-01-12 11:10:00,32.2,11.1,29.45,North,-999,-999.0,-999.0,41,0.00,,,0.00,meteohub,2013-01-12 17:10:00,
2013-01-12 11:15:00,32.0,10.9,29.45,North,-999,-999.0,-999.0,41,0.00,,,0.00,meteohub,2013-01-12 17:15:00,
2013-01-12 11:20:00,32.0,10.9,29.45,North,-999,-999.0,-999.0,41,0.00,,,0.00,meteohub,2013-01-12 17:20:00,
2013-01-12 11:26:00,31.8,10.8,29.45,North,-999,-999.0,-999.0,41,0.00,,,0.00,meteohub,2013-01-12 17:26:00,
2013-01-12 11:31:00,31.6,10.6,29.45,North,-999,-999.0,-999.0,41,0.00,,,0.00,meteohub,2013-01-12 17:31:00,
2013-01-12 11:36:00,31.6,10.6,29.45,North,-999,-999.0,-999.0,41,0.00,,,0.00,meteohub,2013-01-12 17:36:00,
2013-01-12 11:41:00,31.6,10.6,29.42,North,-999,-999.0,-999.0,41,0.00,,,0.00,meteohub,2013-01-12 17:41:00,
2013-01-12 11:47:00,31.5,10.4,29.42,North,-999,-999.0,-999.0,41,0.00,,,0.00,meteohub,2013-01-12 17:47:00,
2013-01-12 11:52:00,31.3,10.2,29.42,North,-999,-999.0,-999.0,41,0.00,,,0.00,meteohub,2013-01-12 17:52:00,
2013-01-12 11:57:00,31.1,10.2,29.42,North,-999,-999.0,-999.0,41,0.00,,,0.00,meteohub,2013-01-12 17:57:00,
2013-01-12 12:02:00,30.7,9.9,29.42,North,-999,-999.0,-999.0,41,0.00,,,0.00,meteohub,2013-01-12 18:02:00,
2013-01-12 12:08:00,30.7,9.9,29.42,North,-999,-999.0,-999.0,41,0.00,,,0.00,meteohub,2013-01-12 18:08:00,
2013-01-12 12:13:00,30.7,9.9,29.42,North,-999,-999.0,-999.0,41,0.00,,,0.00,meteohub,2013-01-12 18:13:00,
2013-01-12 12:18:00,30.9,10.0,29.42,North,-999,-999.0,-999.0,41,0.00,,,0.00,meteohub,2013-01-12 18:18:00,
2013-01-12 12:24:00,30.7,9.9,29.39,North,-999,-999.0,-999.0,41,0.00,,,0.00,meteohub,2013-01-12 18:24:00,
2013-01-12 12:29:00,30.7,9.9,29.39,North,-999,-999.0,-999.0,41,0.00,,,0.00,meteohub,2013-01-12 18:29:00,
2013-01-12 12:34:00,30.9,10.0,29.39,North,-999,-999.0,-999.0,41,0.00,,,0.00,meteohub,2013-01-12 18:34:00,
2013-01-12 12:40:00,30.7,9.9,29.39,North,-999,-999.0,-999.0,41,0.00,,,0.00,meteohub,2013-01-12 18:40:00,
2013-01-12 12:45:00,30.7,9.9,29.39,North,-999,-999.0,-999.0,41,0.00,,,0.00,meteohub,2013-01-12 18:45:00,
2013-01-12 12:50:00,30.7,9.9,29.39,North,-999,-999.0,-999.0,41,0.00,,,0.00,meteohub,2013-01-12 18:50:00,
2013-01-12 12:55:00,30.7,9.9,29.42,North,-999,-999.0,-999.0,41,0.00,,,0.00,meteohub,2013-01-12 18:55:00,
2013-01-12 13:01:00,30.7,9.9,29.42,North,-999,-999.0,-999.0,41,0.00,,,0.00,meteohub,2013-01-12 19:01:00,
2013-01-12 13:06:00,30.9,10.0,29.42,North,-999,-999.0,-999.0,41,0.00,,,0.00,meteohub,2013-01-12 19:06:00,
2013-01-12 13:11:00,31.1,10.2,29.42,North,-999,-999.0,-999.0,41,0.00,,,0.00,meteohub,2013-01-12 19:11:00,
2013-01-12 13:16:00,30.9,10.0,29.42,North,-999,-999.0,-999.0,41,0.00,,,0.00,meteohub,2013-01-12 19:16:00,
2013-01-12 13:22:00,30.9,10.0,29.42,North,-999,-999.0,-999.0,41,0.00,,,0.00,meteohub,2013-01-12 19:22:00,
2013-01-12 13:27:00,31.1,10.2,29.42,North,-999,-999.0,-999.0,41,0.00,,,0.00,meteohub,2013-01-12 19:27:00,
2013-01-12 13:32:00,31.1,10.2,29.42,North,-999,-999.0,-999.0,41,0.00,,,0.00,meteohub,2013-01-12 19:32:00,
2013-01-12 13:37:00,31.3,10.2,29.42,North,-999,-999.0,-999.0,41,0.00,,,0.00,meteohub,2013-01-12 19:37:00,
2013-01-12 13:42:00,31.5,10.4,29.42,North,-999,-999.0,-999.0,41,0.00,,,0.00,meteohub,2013-01-12 19:42:00,
2013-01-12 13:47:00,31.3,10.2,29.42,North,-999,-999.0,-999.0,41,0.00,,,0.00,meteohub,2013-01-12 19:47:00,
2013-01-12 13:52:00,31.3,10.2,29.42,North,-999,-999.0,-999.0,41,0.00,,,0.00,meteohub,2013-01-12 19:52:00,
2013-01-12 13:57:00,31.1,10.2,29.42,North,-999,-999.0,-999.0,41,0.00,,,0.00,meteohub,2013-01-12 19:57:00,
2013-01-12 14:03:00,31.3,10.2,29.42,North,-999,-999.0,-999.0,41,0.00,,,0.00,meteohub,2013-01-12 20:03:00,
2013-01-12 14:08:00,31.3,10.2,29.42,North,-999,-999.0,-999.0,41,0.00,,,0.00,meteohub,2013-01-12 20:08:00,
2013-01-12 14:13:00,31.3,10.2,29.39,North,-999,-999.0,-999.0,41,0.00,,,0.00,meteohub,2013-01-12 20:13:00,
2013-01-12 14:19:00,31.1,10.2,29.39,North,-999,-999.0,-999.0,41,0.00,,,0.00,meteohub,2013-01-12 20:19:00,
2013-01-12 14:24:00,31.5,10.4,29.39,North,-999,-999.0,-999.0,41,0.00,,,0.00,meteohub,2013-01-12 20:24:00,
2013-01-12 14:29:00,31.5,10.4,29.39,North,-999,-999.0,-999.0,41,0.00,,,0.00,meteohub,2013-01-12 20:29:00,
2013-01-12 14:34:00,31.3,10.2,29.39,North,-999,-999.0,-999.0,41,0.00,,,0.00,meteohub,2013-01-12 20:34:00,
2013-01-12 14:40:00,31.5,10.4,29.36,North,-999,-999.0,-999.0,41,0.00,,,0.00,meteohub,2013-01-12 20:40:00,
2013-01-12 14:45:00,31.6,10.6,29.36,North,-999,-999.0,-999.0,41,0.00,,,0.00,meteohub,2013-01-12 20:45:00,
2013-01-12 14:50:00,31.5,10.4,29.36,North,-999,-999.0,-999.0,41,0.00,,,0.00,meteohub,2013-01-12 20:50:00,
2013-01-12 14:55:00,31.6,10.6,29.36,North,-999,-999.0,-999.0,41,0.00,,,0.00,meteohub,2013-01-12 20:55:00,
2013-01-12 15:01:00,31.6,10.6,29.36,North,-999,-999.0,-999.0,41,0.00,,,0.00,meteohub,2013-01-12 21:01:00,
2013-01-12 15:06:00,31.6,10.6,29.36,North,-999,-999.0,-999.0,41,0.00,,,0.00,meteohub,2013-01-12 21:06:00,
2013-01-12 15:11:00,31.6,10.6,29.39,North,-999,-999.0,-999.0,41,0.00,,,0.00,meteohub,2013-01-12 21:11:00,
2013-01-12 15:17:00,31.5,10.4,29.39,North,-999,-999.0,-999.0,41,0.00,,,0.00,meteohub,2013-01-12 21:17:00,
2013-01-12 15:22:00,31.5,10.4,29.39,North,-999,-999.0,-999.0,41,0.00,,,0.00,meteohub,2013-01-12 21:22:00,
2013-01-12 15:27:00,31.5,10.4,29.36,North,-999,-999.0,-999.0,41,0.00,,,0.00,meteohub,2013-01-12 21:27:00,
2013-01-12 15:33:00,31.5,10.4,29.36,North,-999,-999.0,-999.0,41,0.00,,,0.00,meteohub,2013-01-12 21:33:00,
2013-01-12 15:38:00,31.6,10.6,29.36,North,-999,-999.0,-999.0,41,0.00,,,0.00,meteohub,2013-01-12 21:38:00,
2013-01-12 15:43:00,31.5,10.4,29.39,North,-999,-999.0,-999.0,41,0.00,,,0.00,meteohub,2013-01-12 21:43:00,
2013-01-12 15:49:00,31.5,10.4,29.39,North,-999,-999.0,-999.0,41,0.00,,,0.00,meteohub,2013-01-12 21:49:00,
2013-01-12 15:54:00,31.3,10.2,29.39,North,-999,-999.0,-999.0,41,0.00,,,0.00,meteohub,2013-01-12 21:54:00,
2013-01-12 15:59:00,31.3,10.2,29.39,North,-999,-999.0,-999.0,41,0.00,,,0.00,meteohub,2013-01-12 21:59:00,
2013-01-12 16:05:00,31.1,10.2,29.39,North,-999,-999.0,-999.0,41,0.00,,,0.00,meteohub,2013-01-12 22:05:00,
2013-01-12 16:10:00,30.9,10.0,29.42,North,-999,-999.0,-999.0,41,0.00,,,0.00,meteohub,2013-01-12 22:10:00,
2013-01-12 16:15:00,30.7,9.9,29.42,North,-999,-999.0,-999.0,41,0.00,,,0.00,meteohub,2013-01-12 22:15:00,
2013-01-12 16:21:00,30.4,9.5,29.42,North,-999,-999.0,-999.0,41,0.00,,,0.00,meteohub,2013-01-12 22:21:00,
2013-01-12 16:26:00,30.0,9.1,29.42,North,-999,-999.0,-999.0,41,0.00,,,0.00,meteohub,2013-01-12 22:26:00,
2013-01-12 16:31:00,29.3,8.6,29.42,North,-999,-999.0,-999.0,41,0.00,,,0.00,meteohub,2013-01-12 22:31:00,
2013-01-12 16:37:00,28.6,7.9,29.42,North,-999,-999.0,-999.0,41,0.00,,,0.00,meteohub,2013-01-12 22:37:00,
2013-01-12 16:42:00,28.0,7.9,29.42,North,-999,-999.0,-999.0,42,0.00,,,0.00,meteohub,2013-01-12 22:42:00,
2013-01-12 16:47:00,27.7,8.1,29.42,North,-999,-999.0,-999.0,43,0.00,,,0.00,meteohub,2013-01-12 22:47:00,
2013-01-12 16:52:00,27.3,7.7,29.42,North,-999,-999.0,-999.0,43,0.00,,,0.00,meteohub,2013-01-12 22:52:00,
2013-01-12 16:57:00,27.1,8.1,29.42,North,-999,-999.0,-999.0,44,0.00,,,0.00,meteohub,2013-01-12 22:57:00,
2013-01-12 17:02:00,27.0,8.4,29.42,North,-999,-999.0,-999.0,45,0.00,,,0.00,meteohub,2013-01-12 23:02:00,
2013-01-12 17:07:00,27.0,9.0,29.42,North,-999,-999.0,-999.0,46,0.00,,,0.00,meteohub,2013-01-12 23:07:00,
2013-01-12 17:12:00,27.0,9.5,29.42,North,-999,-999.0,-999.0,47,0.00,,,0.00,meteohub,2013-01-12 23:12:00,
2013-01-12 17:18:00,26.8,9.3,29.42,North,-999,-999.0,-999.0,47,0.00,,,0.00,meteohub,2013-01-12 23:18:00,
2013-01-12 17:23:00,26.8,9.3,29.42,North,-999,-999.0,-999.0,47,0.00,,,0.00,meteohub,2013-01-12 23:23:00,
2013-01-12 17:28:00,26.2,8.8,29.42,North,-999,-999.0,-999.0,47,0.00,,,0.00,meteohub,2013-01-12 23:28:00,
2013-01-12 17:34:00,26.2,9.1,29.42,North,-999,-999.0,-999.0,48,0.00,,,0.00,meteohub,2013-01-12 23:34:00,
2013-01-12 17:39:00,26.1,9.5,29.42,North,-999,-999.0,-999.0,49,0.00,,,0.00,meteohub,2013-01-12 23:39:00,
2013-01-12 17:45:00,26.1,9.1,29.42,North,-999,-999.0,-999.0,48,0.00,,,0.00,meteohub,2013-01-12 23:45:00,
2013-01-12 17:50:00,26.1,9.1,29.42,North,-999,-999.0,-999.0,48,0.00,,,0.00,meteohub,2013-01-12 23:50:00,
2013-01-12 17:55:00,26.1,9.5,29.39,North,-999,-999.0,-999.0,49,0.00,,,0.00,meteohub,2013-01-12 23:55:00,
2013-01-12 18:01:00,25.9,8.4,29.39,North,-999,-999.0,-999.0,47,0.00,,,0.00,meteohub,2013-01-13 00:01:00,
2013-01-12 18:06:00,26.1,9.1,29.39,North,-999,-999.0,-999.0,48,0.00,,,0.00,meteohub,2013-01-13 00:06:00,
2013-01-12 18:11:00,25.9,8.4,29.42,North,-999,-999.0,-999.0,47,0.00,,,0.00,meteohub,2013-01-13 00:11:00,
2013-01-12 18:17:00,25.7,8.2,29.42,North,-999,-999.0,-999.0,47,0.00,,,0.00,meteohub,2013-01-13 00:17:00,
2013-01-12 18:22:00,25.7,7.7,29.42,North,-999,-999.0,-999.0,46,0.00,,,0.00,meteohub,2013-01-13 00:22:00,
2013-01-12 18:27:00,25.7,7.7,29.36,North,-999,-999.0,-999.0,46,0.00,,,0.00,meteohub,2013-01-13 00:27:00,
2013-01-12 18:32:00,25.7,7.7,29.36,North,-999,-999.0,-999.0,46,0.00,,,0.00,meteohub,2013-01-13 00:32:00,
2013-01-12 18:37:00,25.7,7.3,29.36,North,-999,-999.0,-999.0,45,0.00,,,0.00,meteohub,2013-01-13 00:37:00,
2013-01-12 18:42:00,25.7,6.8,29.39,North,-999,-999.0,-999.0,44,0.00,,,0.00,meteohub,2013-01-13 00:42:00,
2013-01-12 18:47:00,25.7,6.8,29.39,North,-999,-999.0,-999.0,44,0.00,,,0.00,meteohub,2013-01-13 00:47:00,
2013-01-12 18:52:00,25.7,6.3,29.39,North,-999,-999.0,-999.0,43,0.00,,,0.00,meteohub,2013-01-13 00:52:00,
2013-01-12 18:57:00,25.9,6.4,29.39,North,-999,-999.0,-999.0,43,0.00,,,0.00,meteohub,2013-01-13 00:57:00,
2013-01-12 19:03:00,25.7,6.3,29.39,North,-999,-999.0,-999.0,43,0.00,,,0.00,meteohub,2013-01-13 01:03:00,
2013-01-12 19:08:00,25.7,6.3,29.39,North,-999,-999.0,-999.0,43,0.00,,,0.00,meteohub,2013-01-13 01:08:00,
2013-01-12 19:13:00,25.9,5.9,29.42,North,-999,-999.0,-999.0,42,0.00,,,0.00,meteohub,2013-01-13 01:13:00,
2013-01-12 19:19:00,25.9,5.9,29.42,North,-999,-999.0,-999.0,42,0.00,,,0.00,meteohub,2013-01-13 01:19:00,
2013-01-12 19:24:00,26.1,6.1,29.42,North,-999,-999.0,-999.0,42,0.00,,,0.00,meteohub,2013-01-13 01:24:00,
2013-01-12 19:29:00,26.1,6.1,29.42,North,-999,-999.0,-999.0,42,0.00,,,0.00,meteohub,2013-01-13 01:29:00,
2013-01-12 19:35:00,25.9,5.9,29.42,North,-999,-999.0,-999.0,42,0.00,,,0.00,meteohub,2013-01-13 01:35:00,
2013-01-12 19:40:00,25.9,5.9,29.39,North,-999,-999.0,-999.0,42,0.00,,,0.00,meteohub,2013-01-13 01:40:00,
2013-01-12 19:45:00,25.7,6.3,29.39,North,-999,-999.0,-999.0,43,0.00,,,0.00,meteohub,2013-01-13 01:45:00,
2013-01-12 19:51:00,25.7,6.3,29.39,North,-999,-999.0,-999.0,43,0.00,,,0.00,meteohub,2013-01-13 01:51:00,
2013-01-12 19:56:00,25.5,6.1,29.42,North,-999,-999.0,-999.0,43,0.00,,,0.00,meteohub,2013-01-13 01:56:00,
2013-01-12 20:01:00,25.5,5.5,29.42,North,-999,-999.0,-999.0,42,0.00,,,0.00,meteohub,2013-01-13 02:01:00,
2013-01-12 20:06:00,25.5,5.5,29.42,North,-999,-999.0,-999.0,42,0.00,,,0.00,meteohub,2013-01-13 02:06:00,
2013-01-12 20:12:00,25.7,5.7,29.42,North,-999,-999.0,-999.0,42,0.00,,,0.00,meteohub,2013-01-13 02:12:00,
2013-01-12 20:17:00,25.7,5.7,29.42,North,-999,-999.0,-999.0,42,0.00,,,0.00,meteohub,2013-01-13 02:17:00,
2013-01-12 20:22:00,25.7,5.7,29.42,North,-999,-999.0,-999.0,42,0.00,,,0.00,meteohub,2013-01-13 02:22:00,
2013-01-12 20:27:00,25.7,5.7,29.42,North,-999,-999.0,-999.0,42,0.00,,,0.00,meteohub,2013-01-13 02:27:00,
2013-01-12 20:32:00,25.5,5.5,29.42,North,-999,-999.0,-999.0,42,0.00,,,0.00,meteohub,2013-01-13 02:32:00,
2013-01-12 20:38:00,25.5,5.5,29.42,North,-999,-999.0,-999.0,42,0.00,,,0.00,meteohub,2013-01-13 02:38:00,
2013-01-12 20:43:00,25.5,5.5,29.42,North,-999,-999.0,-999.0,42,0.00,,,0.00,meteohub,2013-01-13 02:43:00,
2013-01-12 20:48:00,25.5,5.5,29.42,North,-999,-999.0,-999.0,42,0.00,,,0.00,meteohub,2013-01-13 02:48:00,
2013-01-12 20:54:00,25.3,5.4,29.42,North,-999,-999.0,-999.0,42,0.00,,,0.00,meteohub,2013-01-13 02:54:00,
2013-01-12 20:59:00,25.3,5.4,29.42,North,-999,-999.0,-999.0,42,0.00,,,0.00,meteohub,2013-01-13 02:59:00,
2013-01-12 21:04:00,25.3,5.4,29.42,North,-999,-999.0,-999.0,42,0.00,,,0.00,meteohub,2013-01-13 03:04:00,
2013-01-12 21:10:00,25.3,5.4,29.42,North,-999,-999.0,-999.0,42,0.00,,,0.00,meteohub,2013-01-13 03:10:00,
2013-01-12 21:15:00,25.3,5.4,29.42,North,-999,-999.0,-999.0,42,0.00,,,0.00,meteohub,2013-01-13 03:15:00,
2013-01-12 21:20:00,25.3,5.4,29.42,North,-999,-999.0,-999.0,42,0.00,,,0.00,meteohub,2013-01-13 03:20:00,
2013-01-12 21:26:00,25.2,5.4,29.42,North,-999,-999.0,-999.0,42,0.00,,,0.00,meteohub,2013-01-13 03:26:00,
2013-01-12 21:31:00,25.2,5.4,29.42,North,-999,-999.0,-999.0,42,0.00,,,0.00,meteohub,2013-01-13 03:31:00,
2013-01-12 21:36:00,25.2,5.4,29.42,North,-999,-999.0,-999.0,42,0.00,,,0.00,meteohub,2013-01-13 03:36:00,
2013-01-12 21:42:00,25.2,5.4,29.42,North,-999,-999.0,-999.0,42,0.00,,,0.00,meteohub,2013-01-13 03:42:00,
2013-01-12 21:47:00,25.2,5.4,29.42,North,-999,-999.0,-999.0,42,0.00,,,0.00,meteohub,2013-01-13 03:47:00,
2013-01-12 21:52:00,25.2,5.4,29.42,North,-999,-999.0,-999.0,42,0.00,,,0.00,meteohub,2013-01-13 03:52:00,
2013-01-12 21:57:00,25.2,5.4,29.42,North,-999,-999.0,-999.0,42,0.00,,,0.00,meteohub,2013-01-13 03:57:00,
2013-01-12 22:03:00,25.0,5.2,29.42,North,-999,-999.0,-999.0,42,0.00,,,0.00,meteohub,2013-01-13 04:03:00,
2013-01-12 22:08:00,25.0,5.2,29.42,North,-999,-999.0,-999.0,42,0.00,,,0.00,meteohub,2013-01-13 04:08:00,
2013-01-12 22:13:00,25.0,5.2,29.42,North,-999,-999.0,-999.0,42,0.00,,,0.00,meteohub,2013-01-13 04:13:00,
2013-01-12 22:19:00,25.0,5.2,29.42,North,-999,-999.0,-999.0,42,0.00,,,0.00,meteohub,2013-01-13 04:19:00,
2013-01-12 22:24:00,24.8,5.0,29.42,North,-999,-999.0,-999.0,42,0.00,,,0.00,meteohub,2013-01-13 04:24:00,
2013-01-12 22:29:00,24.8,5.0,29.39,North,-999,-999.0,-999.0,42,0.00,,,0.00,meteohub,2013-01-13 04:29:00,
2013-01-12 22:35:00,24.8,5.0,29.39,North,-999,-999.0,-999.0,42,0.00,,,0.00,meteohub,2013-01-13 04:35:00,
2013-01-12 22:40:00,24.6,4.8,29.42,North,-999,-999.0,-999.0,42,0.00,,,0.00,meteohub,2013-01-13 04:40:00,
2013-01-12 22:45:00,24.6,4.8,29.42,North,-999,-999.0,-999.0,42,0.00,,,0.00,meteohub,2013-01-13 04:45:00,
2013-01-12 22:50:00,24.6,4.8,29.42,North,-999,-999.0,-999.0,42,0.00,,,0.00,meteohub,2013-01-13 04:50:00,
2013-01-12 22:56:00,24.6,4.8,29.45,North,-999,-999.0,-999.0,42,0.00,,,0.00,meteohub,2013-01-13 04:56:00,
2013-01-12 23:00:00,24.6,4.8,29.45,North,-999,-999.0,-999.0,42,0.00,,,0.00,meteohub,2013-01-13 05:00:00,
2013-01-12 23:04:00,24.4,4.6,29.45,North,-999,-999.0,-999.0,42,0.00,,,0.00,meteohub,2013-01-13 05:04:00,
2013-01-12 23:07:00,24.4,4.6,29.45,North,-999,-999.0,-999.0,42,0.00,,,0.00,meteohub,2013-01-13 05:07:00,
2013-01-12 23:10:00,24.4,4.6,29.45,North,-999,-999.0,-999.0,42,0.00,,,0.00,meteohub,2013-01-13 05:10:00,
2013-01-12 23:16:00,24.4,4.6,29.45,North,-999,-999.0,-999.0,42,0.00,,,0.00,meteohub,2013-01-13 05:16:00,
2013-01-12 23:21:00,24.4,4.6,29.45,North,-999,-999.0,-999.0,42,0.00,,,0.00,meteohub,2013-01-13 05:21:00,
2013-01-12 23:26:00,24.3,4.5,29.42,North,-999,-999.0,-999.0,42,0.00,,,0.00,meteohub,2013-01-13 05:26:00,
2013-01-12 23:31:00,24.3,4.5,29.42,North,-999,-999.0,-999.0,42,0.00,,,0.00,meteohub,2013-01-13 05:31:00,
2013-01-12 23:37:00,24.3,4.5,29.42,North,-999,-999.0,-999.0,42,0.00,,,0.00,meteohub,2013-01-13 05:37:00,
2013-01-12 23:42:00,24.1,4.3,29.42,North,-999,-999.0,-999.0,42,0.00,,,0.00,meteohub,2013-01-13 05:42:00,
2013-01-12 23:47:00,23.9,4.1,29.42,North,-999,-999.0,-999.0,42,0.00,,,0.00,meteohub,2013-01-13 05:47:00,
2013-01-12 23:52:00,23.7,3.9,29.42,North,-999,-999.0,-999.0,42,0.00,,,0.00,meteohub,2013-01-13 05:52:00,
2013-01-12 23:57:00,23.5,3.7,29.42,North,-999,-999.0,-999.0,42,0.00,,,0.00,meteohub,2013-01-13 05:57:00,